User: anonymous   Login
Location: Embarras
(53.3000°N, 116.9000°W)
Time: 22:06:40
(UTC+00:00)
Language:

AIST 2D - Orbit

View from above orbital plane
View from above orbital plane
View from above satellite
View from above satellite

Ground track
Ground track

The orbit data is extracted from the following two-line orbital elements,

1 41465U 16026B   23333.49247270  .00071863  00000-0  56455-3 0  9997
2 41465  96.9651 202.8673 0004758   2.1704 357.9580 15.71288762425795
Epoch (UTC): 29 November 2023 11:49:09
Eccentricity: 0.0004758
inclination: 96.9651°
perigee height: 352 km
apogee height: 358 km
right ascension of ascending node: 202.8673°
argument of perigee: 2.1704°
revolutions per day: 15.71288762
mean anomaly at epoch: 357.9580°
orbit number at epoch: 42579

The dashed part of the orbit path shows where the satellite is in the earth's shadow,  

DLR